Weather History for Norfolk, NE

Change the Weather History Date:

Thursday, July 26, 2012

  Actual Average Record
Temperature  
Mean Temperature 81 °F 75 °F  
Max Temperature 96 °F 86 °F 110 °F (1936)
Min Temperature 65 °F 64 °F 46 °F (1962)
Degree Days  
Heating Degree Days 0 0  
Month to date heating degree days 0 0  
Since 1 June heating degree days 16 30  
Since 1 July heating degree days 0 0  
Cooling Degree Days 16 10  
Month to date cooling degree days 468 258  
Year to date cooling degree days 901 505  
Since 1 June cooling degree days 749 444  
Growing Degree Days 30 (Base 50)    
Moisture  
Dew Point 58 °F    
Average Humidity 55    
Maximum Humidity 87    
Minimum Humidity 22    
Precipitation  
Precipitation 0.00 in 0.10 in 1.26 in (1905)
Month to date precipitation T 2.81  
Year to date precipitation 10.85 16.77  
Snow  
Snow 0.00 in 0.00 in - ()
Month to date snowfall 0.0 0.0  
Since 1 July snowfall 0.0 0.0  
Snow Depth 0.00 in    
Sea Level Pressure  
Sea Level Pressure 29.83 in    
Wind  
Wind Speed 9 mph (WNW)    
Max Wind Speed 21 mph    
Max Gust Speed 25 mph    
Visibility 10 miles    
Events      
T = Trace of Precipitation, MM = Missing Value Source: NWS Daily Summary

Daily Weather History Graph

Daily Weather History Graph

Search for Another Location

Airport:

Trip Planner

Search our weather history database for the weather conditions in past years. The results will help you decide how hot, cold, wet, or windy it might be!

Date:

Astronomy

Jul. 26, 2012 Rise Set
Actual Time 6:17 AM CDT 8:54 PM CDT
Civil Twilight 5:45 AM CDT 9:26 PM CDT
Nautical Twilight 5:05 AM CDT 10:06 PM CDT
Astronomical Twilight 4:19 AM CDT 10:51 PM CDT
Moon 2:42 PM CDT 12:12 AM CDT
Length of Visible Light 15h 40m
Length of Day
14h 36m
First Quarter, 54% of the Moon is Illuminated
Jul 26
First Quarter
Aug 1
Full
Aug 9
Last Quarter
Aug 17
New
Aug 24
First Quarter

Hourly Weather History & Observations

Time (CDT) Temp. Heat Index Dew Point Humidity Pressure Visibility Wind Dir Wind Speed Gust Speed Precip Events Conditions
12:56 AM 70.0 °F - 64.9 °F 84% 29.74 in 10.0 mi SW 5.8 mph - N/A   Clear
1:56 AM 71.1 °F - 64.9 °F 81% 29.79 in 10.0 mi South 4.6 mph - N/A   Clear
2:56 AM 68.0 °F - 64.0 °F 87% 29.78 in 10.0 mi Calm Calm - N/A   Clear
3:56 AM 68.0 °F - 64.0 °F 87% 29.78 in 10.0 mi Calm Calm - N/A   Clear
5:56 AM 66.0 °F - 63.0 °F 90% 29.82 in 9.0 mi NW 4.6 mph - N/A   Clear
6:56 AM 66.0 °F - 63.0 °F 90% 29.83 in 8.0 mi WSW 4.6 mph - N/A   Clear
7:56 AM 72.0 °F - 64.9 °F 78% 29.84 in 10.0 mi North - - N/A   Clear
8:56 AM 78.1 °F - 64.9 °F 64% 29.84 in 10.0 mi West 6.9 mph - N/A   Partly Cloudy
9:56 AM 84.0 °F 85.4 °F 64.0 °F 51% 29.84 in 10.0 mi West 9.2 mph - N/A   Clear
10:56 AM 87.1 °F 86.7 °F 60.1 °F 40% 29.84 in 10.0 mi West 10.4 mph - N/A   Clear
11:56 AM 91.0 °F 90.2 °F 59.0 °F 34% 29.84 in 10.0 mi NW 11.5 mph 18.4 mph N/A   Clear
12:56 PM 91.0 °F 90.0 °F 57.9 °F 33% 29.84 in 10.0 mi WNW 9.2 mph - N/A   Clear
1:56 PM 93.9 °F 91.7 °F 54.0 °F 26% 29.83 in 10.0 mi NNW 13.8 mph 24.2 mph N/A   Clear
2:56 PM 95.0 °F - 50.0 °F 22% 29.83 in 10.0 mi WNW 16.1 mph 24.2 mph N/A   Clear
3:56 PM 95.0 °F - 50.0 °F 22% 29.83 in 10.0 mi WNW 13.8 mph 21.9 mph N/A   Clear
4:56 PM 95.0 °F - 51.1 °F 22% 29.82 in 10.0 mi WNW 11.5 mph 21.9 mph N/A   Clear
6:56 PM 93.0 °F - 48.0 °F 21% 29.80 in 10.0 mi NW 15.0 mph 19.6 mph N/A   Clear
8:56 PM 84.0 °F - 51.1 °F 32% 29.83 in 10.0 mi NNW 9.2 mph - N/A   Clear
9:56 PM 81.0 °F - 52.0 °F 36% 29.87 in 10.0 mi North 9.2 mph 18.4 mph N/A   Clear
10:56 PM 77.0 °F - 54.0 °F 45% 29.90 in 10.0 mi North 10.4 mph - N/A   Clear
11:56 PM 73.9 °F - 54.0 °F 50% 29.93 in 10.0 mi North 12.7 mph 17.3 mph N/A   Clear